Location: Cicognara
(44.9500°N, 10.4667°E)
Time: 14:44:14
(UTC+00:00)

Cosmos 1674 - Pass Details

Date: 20 June 2021
Orbit: 494 x 514 km, 82.5° (Epoch: 02 August)

Event Time Altitude Azimuth Distance (km) Brightness Sun altitude
Exits shadow 20:41:12 - 206° (SSW) 2,600 6.0 -12.6°
Rises 20:41:17 0° 206° (SSW) 2,572 6.0 -12.6°
Reaches altitude 10° 20:43:30 10° 215° (SW) 1,692 5.1 -12.9°
Maximum altitude 20:46:56 36° 283° (WNW) 799 4.1 -13.2°
Drops below altitude 10° 20:50:24 10° 352° (N) 1,702 6.4 -13.6°
Sets 20:52:39 0° 1° (N) 2,589 7.2 -13.8°
